Regional Weather Roundup
Issued by NWS

Home | Current Version | Previous Version | Graphics & Text | Print | Product List | Glossary On
Versions: 1 2 3 4 5 6 7 8 9 10 11 12 13 14 15 16 17 18 19 20 21 22 23 24 25 26 27 28 29 30 31 32 33 34 35 36 37 38 39 40 41 42 43 44 45 46 47 48 49 50
000
ASUS43 KLMK 232210
RWRKY
KENTUCKY REGIONAL WEATHER ROUNDUP
NATIONAL WEATHER SERVICE LOUISVILLE KY
600 PM EDT SAT SEP 23 2017

NOTE "FAIR" INDICATES FEW OR NO CLOUDS BELOW 12,000 FEET
WITH NO SIGNIFICANT WEATHER AND/OR OBSTRUCTIONS TO VISIBILITY.

KYZ001>023-026-027-061>063-070>075-232300-
WESTERN AND SOUTH CENTRAL KENTUCKY

CITY           SKY/WX    TMP DP  RH WIND       PRES   REMARKS
PADUCAH        SUNNY     90  63  40 SE6       29.97F HX  91
HENDERSON      SUNNY     88  63  43 E6        30.02S
OWENSBORO      SUNNY     88  64  44 E8        30.02S
HOPKINSVILLE   SUNNY     87  68  52 E7        30.00S HX  90
BOWLING GREEN  SUNNY     86  68  54 NE9       30.02S
GLASGOW        SUNNY     87  64  46 E6        30.03S
$$

KYZ024-025-028>034-038-045-046-053-232300-
NORTH CENTRAL KENTUCKY

CITY           SKY/WX    TMP DP  RH WIND       PRES   REMARKS
LOUISVILLE/SDF MOSUNNY   89  62  40 E10       30.04S
LOUISVILLE/LOU SUNNY     89  64  43 NE9       30.05S HX  90
FORT KNOX      SUNNY     86  65  49 NE7       30.04S
$$

KYZ035>037-039>044-047>052-055>060-089>105-232300-
NORTHEAST KENTUCKY

CITY           SKY/WX    TMP DP  RH WIND       PRES   REMARKS
LEXINGTON      SUNNY     86  62  44 NE10      30.07S
COVINGTON      MOSUNNY   88  64  44 E8        30.07S
FRANKFORT      SUNNY     88  60  38 NE5       30.06R
$$

KYZ054-064>069-076>088-106>120-232300-
SOUTHEAST KENTUCKY

CITY           SKY/WX    TMP DP  RH WIND       PRES   REMARKS
JACKSON        SUNNY     83  64  52 CALM      30.08F
LONDON         SUNNY     85  59  41 NE10      30.06S
SOMERSET       SUNNY     84  59  42 NE7       30.06S
MIDDLESBORO    CLOUDY    85  66  53 N3        30.05S
MONTICELLO     CLEAR     86  66  51 MISG      30.06F
$$





USA.gov is the U.S. government's official web portal to all federal, state and local government web resources and services.